[[{"header":{"parameterUnit":"m.s-1","parameterCategory":2,"la1":30.2992,"la2":30.254,"lo1":-89.0895,"lo2":-89.0443,"dy":0.0025,"dx":0.0025,"nx":19,"ny":19,"refTime":"2026-03-11T09:00:00:Z","depth":"0","parameterNumber":2,"parameterNumberName":"U-component_of_CURRENTS"},"data":[0,0,0,0.3077,0.3078,0.3136,0.3136,0.3198,0.3199,0,0,0,0,0,0,0,0,0,0,0,0.3049,0.305,0.3077,0.3078,0.3136,0.3136,0.3198,0.3199,0,0,0,0,0,0,0,0,0,0,0,0.3049,0.3049,0.305,0.3079,0.3136,0.3136,0.3198,0.3155,0,0,0,0,0,0,0,0,0,0,0.3099,0.3075,0.3049,0.305,0.3079,0.3136,0.3136,0.3153,0.3157,0.3172,0,0.3184,0,0.3202,0.3203,0.3204,0,0,0,0.3068,0.3071,0.3095,0.305,0.308,0.3136,0.3107,0.3155,0.3161,0.3178,0.3186,0.3188,0.3203,0.3204,0.3204,0.3306,0.3306,0,0,0.3065,0.3052,0.3091,0.3098,0.31,0.3105,0.3109,0.3159,0.3162,0.3186,0.319,0.3204,0.3204,0.3205,0.3305,0.3306,0,0,0,0.3063,0.305,0.3071,0.3095,0.3112,0.3107,0.3111,0.3159,0.3169,0.3191,0.3204,0.3205,0.3206,0.3305,0.3305,0.3356,0,0,0,0.306,0.305,0.307,0.3062,0.3111,0.3137,0.311,0.3165,0.3171,0.3204,0.3205,0.3206,0.3304,0.3305,0.3353,0.3357,0,0,0,0.3046,0.3048,0.3058,0.3061,0.3092,0.3137,0.3149,0.3166,0.318,0.3204,0.3207,0.3303,0.3305,0.3351,0.3353,0.3405,0,0,0,0.3026,0.3038,0.3057,0.3082,0.3092,0.3148,0.3149,0.3187,0.3208,0.3205,0.3304,0.3305,0.335,0.3351,0.3402,0.3367,0.3376,0,0,0.3029,0.3038,0.3055,0.3074,0.3125,0.3139,0.3205,0.323,0.3235,0.3283,0.3286,0.3354,0.3353,0.3404,0.3445,0.3452,0,0,0,0.3048,0.3056,0.3078,0.3112,0.3159,0.3213,0.3241,0.3273,0.3326,0.3257,0.3367,0.3365,0.3396,0.337,0.3376,0.3318,0.3312,0.3311,0.3311,0.3008,0.3048,0.3075,0.313,0.318,0.3266,0.3319,0.3368,0.3366,0.3404,0.3417,0.3501,0.3475,0.3479,0.342,0.3439,0.3439,0.3439,0.344,0.2991,0.2996,0.3067,0.3103,0.3188,0.3252,0.3394,0.3428,0.3513,0.3485,0.3513,0.3437,0.3488,0.3423,0.3443,0.3442,0.3442,0.3442,0.3441,0.2933,0.2942,0.2973,0.3041,0.3132,0.3255,0.3368,0.3473,0.3547,0.3583,0.356,0.3558,0.3491,0.3604,0.3605,0.3605,0.3605,0.3605,0.3606,0.2849,0.2886,0.2894,0.2987,0.3028,0.3159,0.335,0.3432,0.3559,0.3604,0.3603,0.3512,0.3552,0.3534,0.361,0.3609,0.3608,0.3608,0.3608,0.2768,0.2789,0.2799,0.2825,0.2931,0.2976,0.3197,0.3375,0.3498,0.3553,0.356,0.3624,0.3603,0.3597,0.358,0.3664,0.3664,0.3664,0.3664,0.2697,0.2717,0.2694,0.2706,0.2769,0.2884,0.2923,0.3126,0.3382,0.3466,0.3552,0.3496,0.3496,0.3465,0.3463,0.3442,0.3489,0.3488,0.3488,0.2639,0.2649,0.2593,0.2617,0.2668,0.2736,0.2712,0.2817,0.3212,0.3476,0.3483,0.3491,0.3402,0.3407,0.3351,0.3351,0.3314,0,0]},{"header":{"parameterUnit":"m.s-1","parameterCategory":2,"la1":30.2992,"la2":30.254,"lo1":-89.0895,"lo2":-89.0443,"dy":0.0025,"dx":0.0025,"nx":19,"ny":19,"refTime":"2026-03-11T09:00:00:Z","depth":"0","parameterNumber":3,"parameterNumberName":"V-component_of_CURRENTS"},"data":[0,0,0,0.0335,0.0335,0.0309,0.0309,0.0249,0.0249,0,0,0,0,0,0,0,0,0,0,0,0.0343,0.0343,0.0335,0.0335,0.0309,0.0309,0.0249,0.0249,0,0,0,0,0,0,0,0,0,0,0,0.0343,0.0343,0.0343,0.0335,0.0309,0.0309,0.0249,0.0274,0,0,0,0,0,0,0,0,0,0,0.0302,0.0314,0.0343,0.0343,0.0335,0.0309,0.0309,0.0275,0.0272,0.0256,0,0.0257,0,0.0254,0.0245,0.0245,0,0,0,0.0327,0.0317,0.0313,0.0343,0.0335,0.0309,0.0318,0.0274,0.027,0.0252,0.0256,0.0254,0.0254,0.0244,0.0244,0.0257,0.0258,0,0,0.0329,0.0333,0.0315,0.0311,0.0334,0.0319,0.0318,0.0272,0.0268,0.0256,0.0253,0.0253,0.0244,0.0244,0.0257,0.0258,0,0,0,0.0338,0.0334,0.0331,0.0313,0.0312,0.0319,0.0317,0.027,0.0271,0.0252,0.0252,0.0244,0.0243,0.0256,0.0257,0.0371,0,0,0,0.0338,0.034,0.0332,0.0334,0.0313,0.0294,0.0317,0.0274,0.0269,0.0252,0.0244,0.0242,0.0256,0.0257,0.0366,0.0437,0,0,0,0.0344,0.0341,0.034,0.0334,0.0327,0.0295,0.0292,0.0273,0.0268,0.0245,0.0242,0.0255,0.0256,0.0362,0.0429,0.0475,0,0,0,0.0345,0.0375,0.0341,0.0376,0.0327,0.0356,0.0293,0.0297,0.0284,0.0243,0.0256,0.0257,0.0361,0.0424,0.0471,0.0556,0.0584,0,0,0.0391,0.038,0.0405,0.0375,0.0432,0.0358,0.041,0.0358,0.0298,0.0266,0.0266,0.0368,0.0428,0.0474,0.0635,0.0661,0,0,0,0.0427,0.0448,0.0458,0.0479,0.0475,0.0486,0.0425,0.0404,0.0377,0.0297,0.0364,0.0399,0.0424,0.0465,0.0486,0.0371,0.0263,0.0263,0.0263,0.0496,0.0507,0.0564,0.0575,0.0585,0.0572,0.0575,0.0531,0.0453,0.0458,0.0488,0.0599,0.0645,0.0661,0.0542,0.0471,0.0472,0.0472,0.0472,0.0594,0.0637,0.0648,0.0705,0.0708,0.0739,0.0717,0.0676,0.0669,0.0587,0.0605,0.0579,0.0691,0.0555,0.048,0.0478,0.0477,0.0477,0.0476,0.0646,0.0674,0.0701,0.0786,0.086,0.0862,0.0952,0.0896,0.0794,0.0814,0.0821,0.082,0.0702,0.0812,0.0812,0.0813,0.0813,0.0814,0.0814,0.0689,0.0725,0.0801,0.0884,0.0957,0.1061,0.1089,0.1095,0.1052,0.097,0.0969,0.0739,0.0702,0.0691,0.0822,0.0821,0.082,0.0819,0.0818,0.0766,0.0775,0.0899,0.0976,0.1161,0.1339,0.1339,0.1379,0.1323,0.1326,0.0995,0.1034,0.1005,0.0987,0.0982,0.1181,0.1181,0.1181,0.1181,0.0809,0.0826,0.0995,0.1142,0.1327,0.147,0.1673,0.1671,0.1404,0.123,0.1077,0.1,0.099,0.0951,0.0935,0.0924,0.1104,0.1104,0.1103,0.0868,0.0914,0.104,0.1185,0.1405,0.1626,0.1859,0.1936,0.1468,0.1081,0.0903,0.0906,0.0766,0.076,0.0672,0.0657,0.0629,0,0]}],[{"header":{"parameterUnit":"m.s-1","parameterCategory":2,"la1":30.2992,"la2":30.254,"lo1":-89.0895,"lo2":-89.0443,"dy":0.0025,"dx":0.0025,"nx":19,"ny":19,"refTime":"2026-03-11T09:00:00:Z","depth":"2","parameterNumber":2,"parameterNumberName":"U-component_of_CURRENTS"},"data":[0,0,0,0.2606,0.2608,0.2688,0.2688,0.2763,0.2764,0,0,0,0,0,0,0,0,0,0,0,0.2575,0.2576,0.2606,0.2608,0.2688,0.2688,0.2763,0.2764,0,0,0,0,0,0,0,0,0,0,0,0.2575,0.2575,0.2576,0.2608,0.2688,0.2688,0.2763,0.2708,0,0,0,0,0,0,0,0,0,0,0.2632,0.2609,0.2575,0.2576,0.2609,0.2688,0.2688,0.2705,0.2711,0.2721,0,0.2739,0,0.2758,0.2769,0.2769,0,0,0,0.2601,0.2604,0.263,0.2576,0.261,0.2688,0.265,0.2709,0.2715,0.2729,0.2741,0.2744,0.2759,0.2769,0.277,0.2869,0.2869,0,0,0.2597,0.2585,0.2625,0.2634,0.2638,0.2647,0.2653,0.2713,0.272,0.2741,0.2746,0.276,0.277,0.277,0.2868,0.2869,0,0,0,0.2589,0.2582,0.2606,0.263,0.265,0.265,0.2656,0.2717,0.2727,0.2747,0.2761,0.277,0.2771,0.2868,0.2869,0.2925,0,0,0,0.2586,0.2578,0.2604,0.2597,0.2649,0.2689,0.2659,0.2722,0.273,0.2761,0.277,0.2772,0.2867,0.2868,0.2922,0.2932,0,0,0,0.257,0.2576,0.2589,0.2597,0.2635,0.2688,0.2701,0.2725,0.2739,0.2769,0.2772,0.2867,0.2868,0.292,0.2929,0.2979,0,0,0,0.255,0.2567,0.2588,0.2617,0.2635,0.2694,0.2701,0.2748,0.2775,0.2771,0.2867,0.2869,0.2919,0.2926,0.2976,0.2914,0.2922,0,0,0.2557,0.2568,0.2585,0.2606,0.2658,0.2682,0.2752,0.279,0.2797,0.2843,0.2846,0.2923,0.2928,0.2978,0.2987,0.2992,0,0,0,0.2578,0.2588,0.261,0.2647,0.2695,0.2755,0.2793,0.2829,0.289,0.2822,0.2933,0.2934,0.2964,0.2922,0.2926,0.2875,0.2874,0.2874,0.2874,0.2552,0.2586,0.2615,0.2666,0.2719,0.281,0.2869,0.2924,0.2926,0.2968,0.2988,0.3073,0.3028,0.3031,0.3005,0.3005,0.3005,0.3005,0.3006,0.254,0.2547,0.2613,0.2653,0.2738,0.2809,0.2947,0.2986,0.308,0.3054,0.3081,0.2992,0.3039,0.301,0.3009,0.3009,0.3008,0.3008,0.3008,0.2494,0.2502,0.2537,0.2608,0.2704,0.2826,0.294,0.3047,0.3121,0.3162,0.312,0.3118,0.3101,0.3185,0.3185,0.3186,0.3186,0.3186,0.3186,0.2422,0.2459,0.2476,0.2571,0.2617,0.2749,0.2939,0.3018,0.3132,0.3169,0.3169,0.3133,0.3127,0.3112,0.3191,0.319,0.3189,0.3189,0.3189,0.2353,0.2378,0.2396,0.2429,0.2535,0.2575,0.279,0.2952,0.3072,0.3113,0.3177,0.3176,0.3151,0.3145,0.313,0.3209,0.3209,0.3209,0.3209,0.2293,0.2313,0.2304,0.2321,0.238,0.2485,0.2514,0.2664,0.2893,0.2962,0.2972,0.2898,0.2904,0.2859,0.2861,0.2837,0.284,0.2839,0.2838,0.2243,0.2254,0.2211,0.2239,0.2282,0.2338,0.23,0.2305,0.2523,0.2817,0.2841,0.3197,0.3114,0.3113,0.3063,0.3058,0.3027,0,0]},{"header":{"parameterUnit":"m.s-1","parameterCategory":2,"la1":30.2992,"la2":30.254,"lo1":-89.0895,"lo2":-89.0443,"dy":0.0025,"dx":0.0025,"nx":19,"ny":19,"refTime":"2026-03-11T09:00:00:Z","depth":"2","parameterNumber":3,"parameterNumberName":"V-component_of_CURRENTS"},"data":[0,0,0,0.0231,0.0231,0.0207,0.0207,0.0151,0.015,0,0,0,0,0,0,0,0,0,0,0,0.0239,0.0239,0.0231,0.0231,0.0208,0.0207,0.0151,0.015,0,0,0,0,0,0,0,0,0,0,0,0.0239,0.0239,0.0239,0.0231,0.0208,0.0207,0.0151,0.0173,0,0,0,0,0,0,0,0,0,0,0.0199,0.0212,0.0239,0.0239,0.0231,0.0208,0.0207,0.0175,0.0172,0.0156,0,0.0157,0,0.0155,0.0146,0.0146,0,0,0,0.0224,0.0214,0.021,0.0239,0.023,0.0208,0.0216,0.0173,0.017,0.0152,0.0157,0.0155,0.0154,0.0146,0.0146,0.0151,0.0151,0,0,0.0225,0.023,0.0212,0.0208,0.023,0.0217,0.0215,0.0172,0.0169,0.0156,0.0153,0.0153,0.0146,0.0145,0.0151,0.0151,0,0,0,0.0233,0.0231,0.0228,0.021,0.0209,0.0216,0.0215,0.0171,0.0171,0.0153,0.0152,0.0145,0.0145,0.015,0.0151,0.0256,0,0,0,0.0234,0.0236,0.0229,0.0231,0.0211,0.0194,0.0215,0.0174,0.0169,0.0153,0.0145,0.0144,0.0149,0.015,0.0252,0.0318,0,0,0,0.0239,0.0237,0.0237,0.0231,0.0225,0.0195,0.0191,0.0173,0.0169,0.0146,0.0144,0.0149,0.015,0.0249,0.0311,0.0347,0,0,0,0.0241,0.0268,0.0237,0.0269,0.0225,0.0249,0.0192,0.0195,0.0183,0.0145,0.015,0.0151,0.0248,0.0307,0.0343,0.0404,0.0428,0,0,0.0283,0.0273,0.0295,0.0268,0.0319,0.0251,0.0296,0.0249,0.0193,0.0159,0.0159,0.0254,0.0311,0.0346,0.0469,0.0492,0,0,0,0.0315,0.0335,0.0344,0.0362,0.0357,0.0366,0.031,0.0288,0.0262,0.0191,0.0247,0.028,0.0299,0.0327,0.0344,0.0156,0.0156,0.0156,0.0156,0.038,0.0389,0.0441,0.045,0.0457,0.0443,0.0443,0.0399,0.0329,0.0332,0.036,0.0456,0.0487,0.0501,0.0342,0.0343,0.0343,0.0343,0.0344,0.047,0.0509,0.0518,0.057,0.057,0.0597,0.057,0.0532,0.052,0.0448,0.046,0.0431,0.0527,0.0352,0.035,0.0349,0.0348,0.0348,0.0347,0.0519,0.0544,0.0569,0.0647,0.0713,0.0712,0.0789,0.0735,0.0635,0.0651,0.0644,0.0642,0.0523,0.0647,0.0648,0.0648,0.0649,0.0649,0.0649,0.056,0.0593,0.0664,0.074,0.0807,0.09,0.092,0.0917,0.0862,0.0779,0.0779,0.0558,0.0548,0.054,0.0657,0.0655,0.0655,0.0654,0.0653,0.0631,0.0642,0.0758,0.083,0.0999,0.1152,0.1146,0.1159,0.1101,0.1088,0.0833,0.0827,0.0796,0.0781,0.0777,0.0949,0.0949,0.0949,0.0949,0.0674,0.0689,0.0849,0.0985,0.1153,0.1272,0.143,0.1385,0.1208,0.106,0.1055,0.1003,0.0989,0.0963,0.0944,0.0941,0.1155,0.1156,0.1156,0.0729,0.0773,0.0892,0.1027,0.1224,0.1412,0.1584,0.1548,0.1252,0.1161,0.106,0.0969,0.0875,0.086,0.08,0.0777,0.0763,0,0]}],[{"header":{"parameterUnit":"m.s-1","parameterCategory":2,"la1":30.2992,"la2":30.254,"lo1":-89.0895,"lo2":-89.0443,"dy":0.0025,"dx":0.0025,"nx":19,"ny":19,"refTime":"2026-03-11T09:00:00:Z","depth":"4","parameterNumber":2,"parameterNumberName":"U-component_of_CURRENTS"},"data":[0,0,0,0.1704,0.1707,0.187,0.1871,0.2004,0.2005,0,0,0,0,0,0,0,0,0,0,0,0.1655,0.1657,0.1704,0.1708,0.187,0.1871,0.2004,0.2005,0,0,0,0,0,0,0,0,0,0,0,0.1655,0.1656,0.1658,0.1708,0.187,0.1871,0.2004,0.19,0,0,0,0,0,0,0,0,0,0,0.1751,0.1723,0.1656,0.1658,0.1709,0.187,0.1871,0.1895,0.1906,0.1909,0,0.1948,0,0.1975,0.2012,0.2013,0,0,0,0.1708,0.1714,0.1751,0.1658,0.1711,0.187,0.1797,0.1902,0.1914,0.1923,0.195,0.1955,0.1978,0.2013,0.2013,0.2139,0.214,0,0,0.1699,0.1688,0.1743,0.1759,0.1769,0.1792,0.1802,0.191,0.1931,0.195,0.1959,0.198,0.2014,0.2014,0.2139,0.2139,0,0,0,0.1673,0.1682,0.1718,0.1753,0.1787,0.1796,0.1808,0.1927,0.1938,0.196,0.1981,0.2014,0.2015,0.2138,0.2139,0.2199,0,0,0,0.1668,0.1666,0.1714,0.171,0.1786,0.1871,0.1822,0.1931,0.1944,0.1981,0.2014,0.2017,0.2137,0.2138,0.2196,0.221,0,0,0,0.1645,0.1664,0.1686,0.1709,0.1778,0.187,0.1888,0.1935,0.1956,0.2013,0.2017,0.2137,0.2138,0.2193,0.2206,0.2258,0,0,0,0.1621,0.1653,0.1687,0.1735,0.1776,0.1862,0.1888,0.1969,0.202,0.2015,0.2137,0.2139,0.2192,0.2203,0.2255,0.1974,0,0,0,0.1636,0.1655,0.168,0.1713,0.1785,0.1839,0.1934,0.2016,0.2039,0.2095,0.2099,0.2197,0.2206,0.2257,0.2057,0,0,0,0,0.1667,0.1688,0.1717,0.1775,0.1841,0.1929,0.2005,0.2054,0.2149,0.2077,0.2208,0.2211,0.2242,0.207,0.2145,0.2145,0.2145,0.2145,0.2145,0.1656,0.1695,0.1742,0.1806,0.1877,0.2,0.2081,0.2161,0.2178,0.2237,0.2269,0.2359,0.218,0.2285,0.2285,0.2285,0.2285,0.2286,0.2286,0.1653,0.1668,0.1754,0.1817,0.1922,0.2022,0.2173,0.223,0.2351,0.2334,0.2362,0.2155,0.2292,0.2291,0.229,0.2289,0.2289,0.2288,0.2288,0.1611,0.1623,0.1688,0.1792,0.192,0.2061,0.2185,0.2313,0.24,0.245,0.2278,0.2404,0.2389,0.248,0.248,0.248,0.2481,0.2481,0.2481,0.153,0.1591,0.1643,0.1772,0.1848,0.1999,0.2208,0.2281,0.2404,0.2311,0.2478,0.2424,0.2418,0.2401,0.2486,0.2485,0.2484,0.2484,0.2484,0.1454,0.1506,0.156,0.1628,0.1778,0.1857,0.2087,0.2171,0.2229,0.2212,0.2235,0.2246,0.2198,0.2198,0.2171,0.2191,0.2188,0.2184,0,0.1393,0.1424,0.1476,0.153,0.1598,0.1756,0.1776,0.1901,0.2018,0.1951,0.223,0.2252,0.2258,0.22,0.2195,0.2159,0,0,0,0.1343,0.137,0.137,0.1441,0.1489,0.1596,0.1772,0.1752,0.2002,0.1981,0.2102,0.2123,0.2333,0.25,0.2453,0.2446,0.2416,0,0]},{"header":{"parameterUnit":"m.s-1","parameterCategory":2,"la1":30.2992,"la2":30.254,"lo1":-89.0895,"lo2":-89.0443,"dy":0.0025,"dx":0.0025,"nx":19,"ny":19,"refTime":"2026-03-11T09:00:00:Z","depth":"4","parameterNumber":3,"parameterNumberName":"V-component_of_CURRENTS"},"data":[0,0,0,0.0161,0.0161,0.0148,0.0148,0.0105,0.0105,0,0,0,0,0,0,0,0,0,0,0,0.0166,0.0166,0.0161,0.0161,0.0148,0.0148,0.0105,0.0105,0,0,0,0,0,0,0,0,0,0,0,0.0166,0.0166,0.0166,0.0161,0.0148,0.0148,0.0105,0.012,0,0,0,0,0,0,0,0,0,0,0.0135,0.0146,0.0166,0.0166,0.0161,0.0148,0.0148,0.0121,0.0119,0.0105,0,0.0108,0,0.0107,0.0102,0.0101,0,0,0,0.0155,0.0148,0.0145,0.0166,0.0161,0.0148,0.0152,0.012,0.0118,0.0102,0.0107,0.0106,0.0106,0.0101,0.0101,0.01,0.01,0,0,0.0156,0.016,0.0146,0.0144,0.0163,0.0152,0.0152,0.0119,0.0118,0.0107,0.0105,0.0105,0.0101,0.0101,0.0099,0.01,0,0,0,0.0162,0.0161,0.0159,0.0145,0.0146,0.0152,0.0151,0.012,0.0119,0.0105,0.0105,0.0101,0.01,0.0099,0.0099,0.0182,0,0,0,0.0162,0.0165,0.016,0.0162,0.0147,0.0136,0.0153,0.0122,0.0118,0.0105,0.0101,0.01,0.0099,0.0099,0.0179,0.0231,0,0,0,0.0165,0.0165,0.0166,0.0162,0.0159,0.0137,0.0135,0.0121,0.0118,0.0101,0.01,0.0098,0.0099,0.0177,0.0226,0.0247,0,0,0,0.0167,0.0187,0.0166,0.0191,0.0159,0.0178,0.0135,0.0139,0.0131,0.0101,0.0099,0.0099,0.0176,0.0223,0.0244,0.0266,0,0,0,0.0197,0.019,0.0207,0.0189,0.0228,0.0179,0.0212,0.0179,0.0135,0.0105,0.0105,0.018,0.0226,0.0247,0.0309,0,0,0,0,0.0221,0.0236,0.0244,0.026,0.0257,0.0265,0.0224,0.0207,0.0185,0.0133,0.0172,0.0198,0.0209,0.0212,0.0103,0.0103,0.0103,0.0103,0.0103,0.0266,0.0275,0.0316,0.0325,0.0332,0.0323,0.0322,0.0287,0.0235,0.0235,0.0259,0.0326,0.0332,0.0242,0.0242,0.0243,0.0243,0.0243,0.0243,0.0329,0.0358,0.0372,0.0414,0.0419,0.0441,0.0417,0.0389,0.0375,0.0323,0.0329,0.0292,0.0251,0.025,0.0248,0.0248,0.0247,0.0246,0.0246,0.036,0.0379,0.0406,0.0473,0.0529,0.0532,0.0588,0.0547,0.0465,0.0475,0.0451,0.0379,0.0379,0.0471,0.0471,0.0471,0.0472,0.0472,0.0472,0.0382,0.0413,0.0474,0.0541,0.0601,0.0676,0.0693,0.0681,0.0609,0.0559,0.0502,0.0402,0.0395,0.0391,0.0477,0.0476,0.0476,0.0475,0.0475,0.0422,0.0439,0.0535,0.0599,0.074,0.0796,0.0815,0.0777,0.0756,0.0705,0.0584,0.0577,0.0547,0.0536,0.0535,0.0668,0.0669,0.067,0,0.0447,0.0462,0.0593,0.0706,0.0826,0.0869,0.0886,0.0864,0.0755,0.0739,0.0731,0.0597,0.059,0.0555,0.0547,0.0547,0,0,0,0.0479,0.0517,0.061,0.0725,0.0861,0.0891,0.0895,0.0866,0.0776,0.0764,0.0685,0.0681,0.06,0.0493,0.043,0.0421,0.041,0,0]}]]